SUCHAI (42788 NORAD) Tracking and Keplerian Element Data

This shows tracking and keplerian element data for the satellite.

Feedback or suggestion? Click here.




ElementValue
Catalog42788
NameSUCHAI
Epoch Orbit34438
Epoch Day239.09519978
Epoch Year2023
RAAN281.1706
Inclination97.1329
Eccentricity0.0006878
Argument of Perigee172.0561
Mean Anonmoly188.0814
Mean Motion15.7426258
Decay Rate0.0018717
L11 42788U 17036Z 23239.09519978 .00187170 00000+0 12771-2 0 9996
L22 42788 97.1329 281.1706 0006878 172.0561 188.0814 15.74262580344380



Live tracking and technical data element details for SUCHAI (NORAD 42788). SUCHAI can be tracked NOW for your location showing map with azimuth and elevation plus other details from your city location.







IsCatalogInMostPopularTable: catalog: 42788, numindb: 529
Update: records affected: 1



GetName: 42788 SUCHAI

Hit Count: updated at: Thu, 23 Jan 2025 16:33:02 GMT